Date String (YYYY-MM-DD hh:mm:ss) UTC,Instrument flags,Ambient pressure (hPa),Sample flow (lpm),Bypass flow (lpm),Sample temperature (°C),Ambient temperature (°C),ASC tube jacket temperature (°C),LED temperature (°C),Box temperature (°C),Sample RH (%),Span deviation,Mass concentration (μg/m³),Mass concentration (μg/m³),Mass concentration (μg/m³)
DateTimeUTC,F1_M11,P_M11,Q1_M11,Q2_M11,T1_M11,T2_M11,T3_M11,T4_M11,T5_M11,U1_M11,ZSPAN_M11,X0_M11,X2_M11,X1_M11
2021-12-05 16:00:00,,0817.0,5.00,0.00,24.4,23.6,00.0,33.4,26.1,07.1,0000.0,0006.07,0000.84,0000.35
2021-12-05 16:01:00,,0817.0,4.99,0.00,24.4,23.6,00.0,33.4,26.1,07.0,0000.0,0006.02,0000.81,0000.35
2021-12-05 16:02:00,,0816.7,5.01,0.00,24.4,23.6,00.0,33.4,26.1,07.1,0000.0,0005.68,0000.78,0000.35
2021-12-05 16:03:00,,0816.8,4.99,0.00,24.4,23.6,00.0,33.4,26.2,07.2,0000.0,0004.50,0000.76,0000.35
2021-12-05 16:04:00,,0817.0,5.00,0.00,24.4,23.6,00.0,33.4,26.2,07.0,0000.0,0004.02,0000.77,0000.35
2021-12-05 16:05:00,,0817.1,5.01,0.00,24.4,23.7,00.0,33.4,26.3,07.2,0000.0,0003.77,0000.79,0000.35
2021-12-05 16:06:00,,0817.1,4.99,0.00,24.4,23.6,00.0,33.4,26.2,07.2,0000.0,0003.81,0000.79,0000.35
2021-12-05 16:07:00,,0817.0,5.01,0.00,24.4,23.6,00.0,33.4,26.1,07.2,0000.0,0003.95,0000.83,0000.35
2021-12-05 16:08:00,,0817.1,5.01,0.00,24.4,23.6,00.0,33.4,26.2,06.9,0000.0,0003.99,0000.87,0000.35
2021-12-05 16:09:00,,0817.1,4.99,0.00,24.4,23.6,00.0,33.4,26.2,07.1,0000.0,0003.49,0000.87,0000.34
2021-12-05 16:10:00,,0817.1,5.00,0.00,24.4,23.6,00.0,33.4,26.1,06.7,0000.0,0003.32,0000.93,0000.34
2021-12-05 16:11:00,,0817.2,5.01,0.00,24.4,23.6,00.0,33.4,26.1,06.6,0000.0,0003.42,0000.93,0000.34
2021-12-05 16:12:00,,0817.0,4.99,0.00,24.5,23.7,00.0,33.4,26.2,06.9,0000.0,0004.93,0000.95,0000.35
2021-12-05 16:13:00,,0817.0,5.00,0.00,24.5,23.7,00.0,33.4,26.2,06.8,0000.0,0005.22,0000.96,0000.34
2021-12-05 16:14:00,,0817.0,5.01,0.00,24.5,23.7,00.0,33.4,26.2,06.9,0000.0,0005.15,0000.91,0000.35
2021-12-05 16:15:00,,0817.2,5.00,0.00,24.5,23.7,00.0,33.4,26.3,06.9,0000.0,0006.77,0000.92,0000.35
2021-12-05 16:16:00,,0817.5,4.99,0.00,24.5,23.7,00.0,33.4,26.3,06.8,0000.0,0006.98,0000.89,0000.35
2021-12-05 16:17:00,,0817.6,4.99,0.00,24.5,23.7,00.0,33.5,26.2,06.4,0000.0,0007.14,0000.86,0000.35
2021-12-05 16:18:00,,0817.5,5.01,0.00,24.5,23.7,00.0,33.5,26.2,06.6,0000.0,0006.86,0000.83,0000.35
2021-12-05 16:19:00,,0817.6,5.01,0.00,24.5,23.7,00.0,33.5,26.2,06.8,0000.0,0006.62,0000.79,0000.35
2021-12-05 16:20:00,,0817.7,4.99,0.00,24.5,23.7,00.0,33.5,26.2,07.0,0000.0,0006.23,0000.77,0000.36
2021-12-05 16:21:00,,0817.6,5.01,0.00,24.5,23.7,00.0,33.5,26.3,07.1,0000.0,0007.25,0000.73,0000.36
2021-12-05 16:22:00,,0817.4,4.99,0.00,24.5,23.7,00.0,33.5,26.3,07.1,0000.0,0007.53,0000.76,0000.36
2021-12-05 16:23:00,,0817.2,5.01,0.00,24.5,23.8,00.0,33.5,26.3,07.1,0000.0,0006.09,0000.74,0000.35
2021-12-05 16:24:00,,0817.5,5.01,0.00,24.6,23.8,00.0,33.5,26.3,07.0,0000.0,0005.55,0000.73,0000.35
2021-12-05 16:25:00,,0817.4,5.00,0.00,24.6,23.8,00.0,33.5,26.3,07.0,0000.0,0005.63,0000.74,0000.35
2021-12-05 16:26:00,,0817.2,5.00,0.00,24.6,23.8,00.0,33.5,26.3,07.0,0000.0,0004.59,0000.72,0000.35
2021-12-05 16:27:00,,0817.2,5.02,0.00,24.6,23.8,00.0,33.5,26.4,06.5,0000.0,0005.33,0000.76,0000.36
2021-12-05 16:28:00,,0817.4,5.00,0.00,24.6,23.9,00.0,33.5,26.3,06.7,0000.0,0005.26,0000.78,0000.36
2021-12-05 16:29:00,,0817.4,4.99,0.00,24.6,23.9,00.0,33.5,26.3,06.8,0000.0,0006.68,0000.83,0000.35
2021-12-05 16:30:00,,0817.4,5.01,0.00,24.6,23.8,00.0,33.5,26.3,06.9,0000.0,0007.54,0000.85,0000.37
2021-12-05 16:31:00,,0817.5,5.01,0.00,24.6,23.9,00.0,33.6,26.4,06.7,0000.0,0008.12,0000.90,0000.37
2021-12-05 16:32:00,,0817.6,4.99,0.00,24.6,23.8,00.0,33.6,26.4,06.9,0000.0,0008.00,0000.89,0000.37
2021-12-05 16:33:00,,0817.7,5.00,0.00,24.6,23.8,00.0,33.6,26.4,07.0,0000.0,0007.79,0000.84,0000.37
2021-12-05 16:34:00,,0817.6,4.98,0.00,24.6,23.8,00.0,33.6,26.3,07.1,0000.0,0008.14,0000.92,0000.37
2021-12-05 16:35:00,,0817.6,5.01,0.00,24.6,23.8,00.0,33.6,26.3,07.0,0000.0,0008.94,0000.95,0000.37
2021-12-05 16:36:00,,0817.4,5.00,0.00,24.6,23.8,00.0,33.6,26.4,06.9,0000.0,0009.18,0000.97,0000.37
2021-12-05 16:37:00,,0817.5,5.00,0.00,24.6,23.8,00.0,33.6,26.4,06.5,0000.0,0008.75,0000.97,0000.37
2021-12-05 16:38:00,,0817.6,5.00,0.00,24.6,23.8,00.0,33.6,26.4,06.5,0000.0,0008.22,0000.92,0000.36
2021-12-05 16:39:00,,0817.7,4.99,0.00,24.6,23.8,00.0,33.6,26.4,06.8,0000.0,0008.13,0000.90,0000.36
2021-12-05 16:40:00,,0817.4,5.01,0.00,24.6,23.8,00.0,33.6,26.4,06.9,0000.0,0007.70,0000.90,0000.36
2021-12-05 16:41:00,,0817.3,4.99,0.00,24.6,23.8,00.0,33.6,26.3,06.9,0000.0,0007.52,0000.91,0000.36
2021-12-05 16:42:00,,0817.5,5.01,0.00,24.6,23.8,00.0,33.6,26.4,06.9,0000.0,0007.84,0000.94,0000.36
2021-12-05 16:43:00,,0817.4,4.99,0.00,24.6,23.8,00.0,33.6,26.5,06.7,0000.0,0007.35,0000.97,0000.37
2021-12-05 16:44:00,,0817.6,5.00,0.00,24.7,23.8,00.0,33.6,26.4,06.9,0000.0,0007.53,0001.03,0000.38
2021-12-05 16:45:00,,0817.6,5.00,0.00,24.7,23.8,00.0,33.6,26.4,06.8,0000.0,0007.30,0001.04,0000.38
2021-12-05 16:46:00,,0817.6,5.00,0.00,24.7,23.9,00.0,33.6,26.4,06.6,0000.0,0006.14,0001.04,0000.39
2021-12-05 16:47:00,,0817.8,5.00,0.00,24.7,23.9,00.0,33.6,26.4,06.7,0000.0,0005.78,0001.06,0000.39
2021-12-05 16:48:00,,0817.8,5.00,0.00,24.7,23.8,00.0,33.6,26.4,06.7,0000.0,0007.06,0001.11,0000.40
2021-12-05 16:49:00,,0817.9,5.00,0.00,24.7,23.8,00.0,33.7,26.4,06.7,0000.0,0007.83,0001.14,0000.41
2021-12-05 16:50:00,,0817.9,5.02,0.00,24.7,23.9,00.0,33.7,26.4,06.5,0000.0,0008.15,0001.14,0000.41
2021-12-05 16:51:00,,0817.8,4.99,0.00,24.7,23.9,00.0,33.7,26.5,06.5,0000.0,0008.59,0001.15,0000.41
2021-12-05 16:52:00,,0817.8,4.99,0.00,24.7,23.9,00.0,33.7,26.5,06.6,0000.0,0008.30,0001.14,0000.41
2021-12-05 16:53:00,,0817.8,5.00,0.00,24.7,24.0,00.0,33.7,26.5,06.6,0000.0,0007.50,0001.13,0000.40
2021-12-05 16:54:00,,0817.8,5.01,0.00,24.7,24.0,00.0,33.7,26.5,06.6,0000.0,0007.43,0001.15,0000.40
2021-12-05 16:55:00,,0817.8,5.00,0.00,24.7,24.0,00.0,33.7,26.5,06.5,0000.0,0007.28,0001.15,0000.39
2021-12-05 16:56:00,,0817.7,5.00,0.00,24.8,24.0,00.0,33.7,26.6,06.5,0000.0,0007.04,0001.11,0000.39
2021-12-05 16:57:00,,0817.7,4.99,0.00,24.8,24.1,00.0,33.7,26.6,06.5,0000.0,0007.50,0001.12,0000.39
2021-12-05 16:58:00,,0817.9,5.00,0.00,24.8,24.1,00.0,33.7,26.7,06.5,0000.0,0007.48,0001.09,0000.39
2021-12-05 16:59:00,,0818.0,4.98,0.00,24.8,24.1,00.0,33.7,26.7,06.7,0000.0,0006.87,0001.06,0000.38
